FLOCK 4A-17 (44088 NORAD) Tracking and Keplerian Element Data

This shows tracking and keplerian element data for the satellite.

Feedback or suggestion? Click here.




ElementValue
Catalog44088
NameFLOCK 4A-17
Epoch Orbit309
Epoch Day111.72618637
Epoch Year2019
RAAN172.1077
Inclination97.4625
Eccentricity0.0013312
Argument of Perigee206.3852
Mean Anonmoly153.6707
Mean Motion15.21501801
Decay Rate9.1E-06
L11 44088U 19018L 19111.72618637 .00000910 00000-0 43490-4 0 9990
L22 44088 97.4625 172.1077 0013312 206.3852 153.6707 15.21501801 3095

Live tracking and technical data element details for FLOCK 4A-17 (NORAD 44088). FLOCK 4A-17 can be tracked NOW for your location showing map with azimuth and elevation plus other details from your city location.

Track the satellite on the map from your city or location and see movement details for azimuth, elevation, latitude, longitude, range, height, and movement on the map or in text.







IsCatalogInMostPopularTable: catalog: 44088, numindb: 6
Update: records affected: 1



GetName: 44088 FLOCK 4A-17

Hit Count: updated at: Tue, 23 Apr 2019 02:36:49 GMT